www.pogodaiklimat.ru

Погода и климат >> Архив погоды >> Австралия >> Mardie


ПОГОДА в Mardie

  • Прогноз погоды в Mardie
  • Монитор погоды в Mardie
  • Климат города

АРХИВ ПОГОДЫ в Mardie

Время (UTC), дата Ветер
(напр.,м/с)
 
Видим.   Явления Облачность Т
(С)
Тd
(С)
f
(%)
Тe
(С)
Тes
(С)
Комфортность P
(гПа)
Po
(гПа)
Тmin
(С)
Tmax
(С)
R
(мм)
R24
(мм)
S
(см)
01 8.12 ЮЗ 2 н/о н/о +35.9 +4.2 14 +33 +33 жарко 1006.7 1005.4 +22.4
03 8.12 З 6 н/о н/о +36.2 +16.4 31 +39 +39 очень
душно
1006.0 1004.7
04 8.12 З 8 н/о н/о +36.4 +17.0 32 +39 +39 очень
душно
1005.6 1004.3
06 8.12 З 8 н/о н/о +38.9 +14.7 24 +40 +40 очень
душно
1004.0 1002.7
07 8.12 З 9 н/о н/о +36.8 +16.4 30 +39 +39 очень
душно
1003.5 1002.2
09 8.12 З 9 н/о н/о +33.1 +16.9 38 +36 +36 очень
душно
1003.6 1002.3
10 8.12 З 8 н/о н/о +31.9 +17.4 42 +36 +36 очень
душно
1004.0 1002.7
12 8.12 З 6 н/о н/о +29.6 +19.9 56 +36 +36 очень
душно
1004.9 1003.6
13 8.12 З 5 н/о н/о +29.9 +19.9 55 +36 +36 очень
душно
1005.4 1004.1 +41.0
15 8.12 З 5 н/о н/о +28.7 +19.3 57 +34 +34 очень
душно
1006.1 1004.8
16 8.12 З 4 н/о н/о +28.3 +18.7 56 +33 +33 очень
душно
1005.7 1004.4
18 8.12 З 3 н/о н/о +27.1 +14.5 46 +30 +30 душно 1004.9 1003.6
19 8.12 З 3 н/о н/о +27.0 +13.4 43 +29 +29 жарко 1004.8 1003.5
21 8.12 З 3 н/о н/о +25.9 +13.1 45 +28 +28 жарко 1005.3 1004.0
22 8.12 ЮЗ 3 н/о н/о +26.6 +12.3 41 +28 +28 жарко 1006.0 1004.7
00 9.12 ЮЗ 4 н/о н/о +34.0 +8.6 21 +33 +33 жарко 1006.8 1005.5
01 9.12 ЮЗ 5 н/о н/о +36.8 +5.9 15 +34 +34 очень
жарко
1006.5 1005.2
03 9.12 З 5 н/о н/о +38.4 +14.9 25 +39 +39 очень
душно
1005.7 1004.4
04 9.12 З 6 н/о н/о +37.2 +16.7 30 +40 +40 очень
душно
1005.3 1004.0
06 9.12 З 8 н/о н/о +36.9 +16.5 30 +39 +39 очень
душно
1004.2 1002.9
07 9.12 З 9 н/о н/о +36.8 +16.9 31 +39 +39 очень
душно
1003.7 1002.4
09 9.12 З 10 н/о н/о +34.6 +14.5 30 +36 +36 душно 1003.3 1002.0
10 9.12 З 9 н/о н/о +32.3 +17.0 40 +36 +36 очень
душно
1003.5 1002.2
12 9.12 З 7 н/о н/о +29.8 +19.8 55 +36 +36 очень
душно
1004.4 1003.1
13 9.12 З 7 н/о н/о +29.9 +18.7 51 +35 +35 очень
душно
1004.7 1003.4
15 9.12 ЮЗ 3 н/о н/о +28.5 +18.6 55 +34 +34 очень
душно
1005.6 1004.3
16 9.12 ЮЗ 3 н/о н/о +28.3 +16.2 48 +32 +32 душно 1005.2 1003.9
18 9.12 ЮЗ 4 н/о н/о +28.6 +12.1 36 +30 +30 жарко 1004.6 1003.3
19 9.12 ЮЗ 4 н/о н/о +28.5 +12.4 37 +30 +30 жарко 1004.5 1003.2
21 9.12 ЮЗ 3 н/о н/о +26.7 +13.1 43 +28 +28 жарко 1004.6 1003.3
22 9.12 ЮЗ 2 н/о н/о +26.7 +13.1 43 +28 +28 жарко 1005.4 1004.1
00 10.12 ЮЗ 5 н/о н/о +32.9 +12.0 28 +33 +33 жарко 1006.2 1004.9
01 10.12 Ю 4 н/о н/о +36.9 +10.2 20 +36 +36 очень
жарко
1006.6 1005.3 +26.6
03 10.12 ЮВ 2 н/о н/о +42.5 +11.8 16 +39 +39 очень
жарко
1005.7 1004.4
04 10.12 З 7 н/о н/о +41.3 +13.0 19 +41 +41 опасность
перегрева
1004.7 1003.4
06 10.12 З 9 н/о н/о +39.7 +13.3 21 +40 +40 очень
душно
1003.8 1002.5
07 10.12 З 9 н/о н/о +38.8 +15.8 26 +40 +40 очень
душно
1003.4 1002.1
09 10.12 СЗ 6 н/о н/о +33.8 +17.1 37 +37 +37 очень
душно
1003.7 1002.4
10 10.12 СЗ 4 н/о н/о +32.9 +16.7 38 +36 +36 очень
душно
1004.3 1003.0
12 10.12 ЮЗ 2 н/о н/о +31.4 +18.4 46 +36 +36 очень
душно
1005.2 1003.9
13 10.12 ЮЗ 3 н/о н/о +31.3 +18.3 46 +36 +36 очень
душно
1005.6 1004.3 +44.1
15 10.12 ЮЗ 2 н/о н/о +29.2 +15.0 42 +32 +32 душно 1005.9 1004.6
16 10.12 Ю 2 н/о н/о +27.3 +14.0 44 +29 +29 жарко 1005.7 1004.4
18 10.12 ЮЗ 4 н/о н/о +28.1 +7.9 28 +28 +28 жарко 1005.3 1004.0
19 10.12 ЮЗ 3 н/о н/о +27.1 +8.5 31 +27 +27 жарко 1005.3 1004.0
21 10.12 ЮЗ 4 н/о н/о +26.1 +9.5 35 +27 +27 жарко 1006.1 1004.8
22 10.12 ЮЗ 3 н/о н/о +26.2 +9.5 35 +27 +27 жарко 1006.9 1005.6
00 11.12 Ю 5 н/о н/о +34.0 +9.3 22 +33 +33 жарко 1007.7 1006.3
01 11.12 Ю 5 н/о н/о +35.2 +7.3 18 +33 +33 жарко 1007.4 1006.1
03 11.12 Ю 4 н/о н/о +41.5 +9.3 15 +38 +38 очень
жарко
1006.4 1005.1
04 11.12 ЮЗ 6 н/о н/о +42.9 -0.2 7 +39 +39 очень
жарко
1005.7 1004.4
06 11.12 З 10 н/о н/о +40.9 +11.0 17 +40 +40 очень
жарко
1004.6 1003.3
07 11.12 З 9 н/о н/о +39.0 +14.7 24 +40 +40 очень
душно
1004.2 1002.9
09 11.12 З 10 н/о н/о +36.0 +15.7 30 +38 +38 очень
душно
1003.9 1002.6
10 11.12 З 9 н/о н/о +33.4 +15.8 35 +36 +36 очень
душно
1004.2 1002.9
12 11.12 З 6 н/о н/о +30.0 +19.1 52 +35 +35 очень
душно
1005.3 1004.0
13 11.12 З 5 н/о н/о +29.6 +19.0 53 +35 +35 очень
душно
1005.9 1004.6
15 11.12 ЮЗ 3 н/о н/о +29.1 +8.7 28 +29 +29 жарко 1006.7 1005.4
16 11.12 ЮЗ 5 н/о н/о +29.4 -0.9 14 +27 +27 жарко 1006.5 1005.2
18 11.12 ЮЗ 4 н/о н/о +27.9 +0.6 17 +26 +26 жарко 1006.1 1004.8
19 11.12 ЮЗ 4 н/о н/о +26.7 +2.6 21 +25 +25 комфорт 1006.1 1004.8
21 11.12 ЮЗ 5 н/о н/о +26.0 +6.6 29 +26 +26 жарко 1006.7 1005.4
22 11.12 ЮЗ 4 н/о н/о +26.1 +8.1 32 +26 +26 жарко 1007.7 1006.3
00 12.12 Ю 6 н/о н/о +31.7 +8.0 23 +31 +31 жарко 1008.0 1006.6
01 12.12 Ю 5 н/о н/о +34.6 +6.0 17 +32 +32 жарко 1007.5 1006.2 +25.7
03 12.12 ЮЗ 4 н/о н/о +39.1 +8.5 16 +35 +35 очень
жарко
1006.4 1005.1
04 12.12 ЮЗ 5 н/о н/о +41.6 -3.2 6 +37 +37 очень
жарко
1005.7 1004.4
06 12.12 З 9 н/о н/о +37.5 +10.0 19 +36 +36 очень
жарко
1004.8 1003.5
07 12.12 З 10 н/о н/о +37.1 +8.8 18 +35 +35 очень
жарко
1004.1 1002.8
09 12.12 З 10 н/о н/о +34.0 +14.5 31 +35 +35 очень
жарко
1003.7 1002.4
10 12.12 З 8 н/о н/о +31.6 +16.0 39 +34 +34 душно 1004.0 1002.7
12 12.12 З 6 н/о н/о +28.4 +18.8 56 +34 +34 очень
душно
1004.9 1003.6
13 12.12 З 5 н/о н/о +28.0 +20.3 63 +34 +34 очень
душно
1005.2 1003.9 +43.0
15 12.12 З 3 н/о н/о +26.3 +17.9 60 +31 +31 душно 1005.9 1004.6
16 12.12 З 4 н/о н/о +26.0 +17.6 60 +30 +30 душно 1005.0 1003.7
18 12.12 ЮЗ 3 н/о н/о +23.4 +10.8 45 +26 +26 жарко 1004.7 1003.4
19 12.12 ЮЗ 3 н/о н/о +22.9 +7.4 37 +24 +24 комфорт 1004.9 1003.6
21 12.12 ЮЗ 3 н/о н/о +21.1 +5.9 37 +22 +22 комфорт 1005.4 1004.1
22 12.12 ЮЗ 3 н/о н/о +21.5 +7.0 39 +22 +22 комфорт 1005.8 1004.5
00 13.12 ЮЗ 5 н/о н/о +30.0 +3.9 19 +28 +28 жарко 1006.5 1005.2
01 13.12 ЮЗ 3 н/о н/о +33.5 +0.2 12 +30 +30 жарко 1006.5 1005.2 +20.9
03 13.12 З 5 н/о н/о +36.3 +15.4 29 +38 +38 очень
душно
1005.9 1004.6
04 13.12 З 7 н/о н/о +35.6 +16.4 32 +38 +38 очень
душно
1005.5 1004.2
06 13.12 З 8 н/о н/о +36.6 +16.2 30 +39 +39 очень
душно
1004.6 1003.3
07 13.12 З 8 н/о н/о +36.1 +15.2 29 +38 +38 очень
душно
1004.0 1002.7
09 13.12 З 9 н/о н/о +33.7 +14.7 32 +35 +35 очень
жарко
1003.9 1002.6
10 13.12 З 8 н/о н/о +31.7 +16.8 41 +35 +35 очень
душно
1004.1 1002.8
12 13.12 З 5 н/о н/о +27.9 +20.7 65 +35 +35 очень
душно
1005.7 1004.4
13 13.12 З 5 н/о н/о +27.4 +20.7 67 +34 +34 очень
душно
1006.2 1004.9 +38.1
15 13.12 З 4 н/о н/о +26.5 +18.6 62 +31 +31 душно 1006.9 1005.6
16 13.12 З 5 н/о н/о +25.6 +15.6 54 +29 +29 душно 1006.3 1005.0
18 13.12 З 5 н/о н/о +23.8 +14.8 57 +27 +27 жарко 1005.6 1004.3
19 13.12 З 4 н/о н/о +22.8 +14.9 61 +27 +27 душно 1005.8 1004.5
21 13.12 З 4 н/о н/о +21.5 +15.6 69 +25 +25 комфорт 1006.1 1004.8
22 13.12 ЮЗ 5 н/о н/о +21.4 +16.1 72 +25 +25 комфорт 1006.6 1005.3
00 14.12 ЮЗ 6 н/о н/о +26.3 +16.5 55 +30 +30 душно 1007.3 1006.0
01 14.12 ЮЗ 4 н/о н/о +29.1 +14.9 42 +32 +32 душно 1007.3 1006.0
03 14.12 ЮЗ 4 н/о н/о +35.6 +15.3 30 +37 +37 душно 1006.3 1005.0
04 14.12 З 7 н/о н/о +35.0 +18.1 37 +39 +39 очень
душно
1005.7 1004.4
06 14.12 З 9 н/о н/о +34.6 +19.0 40 +40 +40 очень
душно
1004.2 1002.9
07 14.12 З 10 н/о н/о +34.1 +18.6 40 +39 +39 очень
душно
1003.7 1002.4
09 14.12 З 10 н/о н/о +32.3 +16.6 39 +35 +35 очень
душно
1003.9 1002.6
10 14.12 З 10 н/о н/о +29.5 +18.9 53 +35 +35 очень
душно
1004.4 1003.1
12 14.12 З 7 н/о н/о +26.7 +21.5 73 +34 +34 очень
душно
1005.6 1004.3
13 14.12 З 7 н/о н/о +26.4 +20.7 71 +33 +33 очень
душно
1005.9 1004.6
15 14.12 З 6 н/о н/о +25.2 +18.2 65 +30 +30 душно 1006.4 1005.1
16 14.12 З 5 н/о н/о +24.3 +18.7 71 +29 +29 душно 1006.0 1004.7
18 14.12 ЮЗ 5 н/о н/о +22.5 +17.6 74 +28 +28 душно 1005.1 1003.8
19 14.12 ЮЗ 7 н/о н/о +21.7 +18.1 80 +26 +26 душно 1005.1 1003.8
21 14.12 ЮЗ 5 н/о н/о +20.5 +19.2 92 +25 +25 комфорт 1006.1 1004.8
22 14.12 ЮЗ 5 н/о н/о +20.4 +19.4 94 +24 +24 комфорт 1006.8 1005.5
00 15.12 ЮЗ 6 н/о н/о +24.1 +17.6 67 +28 +28 душно 1007.4 1006.1
01 15.12 ЮЗ 7 н/о н/о +26.5 +16.1 53 +30 +30 душно 1007.5 1006.2 +20.2

 

Местоположение метеостанции Mardie (Западная Австралия, Австралия): широта -21.18 долгота 115.97 высота над уровнем моря 12 м.

В архиве по умолчанию представлена погода в Mardie за последнюю неделю. Архивные данные за месяц целиком и за предыдущие месяцы, начиная с января 2011 года, Вы можете получить, выбрав интересующий диапазон дат из раскрывающегося списка и нажав кнопку "Ввод!".


*Определитесь, кто Вы:
робот инопланетянин человек

Внимание! Время в таблицах - всемирное. Для получения местного времени необходимо прибавить поправку, которая в Mardie равна 8 ч.

Смотрите также архив погоды в соседних городах и на ближайших метеорологических станциях:

Погода в Barrow Island Airport (Западная Австралия, Австралия) (68 км)
Погода в Varanus Island (Западная Австралия, Австралия) (72 км)
Погода в Karratha Aero (Западная Австралия, Австралия) (98 км)
Погода в Thevenard Island (Западная Австралия, Австралия) (103 км)
Погода в Onslow Airport (Западная Австралия, Австралия) (104 км)
Погода в Roebourne Aero (Западная Австралия, Австралия) (132 км)
Погода в Learmonth Airport (Западная Австралия, Австралия) (228 км)
Погода в Paraburdoo Aero (Западная Австралия, Австралия) (287 км)
Погода в Port Hedland Apardoo (Западная Австралия, Австралия) (291 км)
Погода в Marble Bar (Западная Австралия, Австралия) (392 км)

Пояснения к столбцам:

Ветер - указаны скорость ветра в м/с - средняя за 10 мин, порывы в срок и между сроками (в фигурных скобках) и направление, откуда дует ветер: С - северный, СВ - северо-восточный, В - восточный, ЮВ - юго-восточный, Ю - южный, ЮЗ - юго-западный, З - западный, СЗ - северо-западный.
Видимость - горизонтальная дальность видимости в метрах или километрах. При видимости от 1 до 10 км при отсутствии осадков обычно наблюдается дымка, при ухудшении видимости до 1 км и менее - туман. В сухую погоду видимость может ухудшаться дымом, пылью или мглою.
Явления - указаны атмосферные явления, наблюдавшиеся в срок или в последний час перед сроком; фигурными скобками обозначены явления, наблюдавшиеся между сроками (за 1-3 часа до срока); квадратными скобками обозначены град или гололедные отложения с указанием их диаметра в мм.
Облачность - указаны через наклонную черту общая и нижняя облачность в баллах и высота нижней границы облаков в метрах; квадратными скобками обозначены формы облаков: Ci - перистые, Cs - перисто-слоистые, Cc - перисто-кучевые, Ac - высококучевые, As - высокослоистые, Sc - слоисто-кучевые, Ns - слоисто-дождевые, Cu - кучевые, Cb - кучево-дождевые. Подробнее классификацию облаков см. в Атласе облаков (PDF).
T - Температура воздуха - температура, измеренная на высоте 2 м над землей.
Td - Температура точки росы - температура, при понижении до которой содержащийся в воздухе водяной пар достигнет насыщения.
f - Относительная влажность воздуха - влажноcть воздуха, измеренная на высоте 2 м над землей.
Te - Эффективная температура - температура, которую ощущает одетый по сезону человек в тени. Характеристика душности погоды. При расчете учитывается влияние влажности воздуха и скорости ветра на теплоощущения человека.
Tes - Эффективная температура на солнце - температура, которую ощущает человек, с поправкой на солнечный нагрев. Характеристика знойности погоды. Зависит от высоты солнца над горизонтом, облачности и скорости ветра. Ночью, в пасмурную погоду, а также при ветре 12 м/с и более поправка равна нулю.
P - Атмосферное давление - приведенное к уровню моря атмосферное давление.
Po - Атмосферное давление - измеренное на уровне метеостанции атмосферное давление.
Tmin - Минимальная температура - минимум температуры воздуха на высоте 2 м над землей.
Tmax - Максимальная температура - максимум температуры воздуха на высоте 2 м над землей.
R - Количество осадков - Количество выпавших осадков за период времени, мм. При наведении курсора мыши на число - период времени, за который выпало указанное количество осадков.
R24 - Количество осадков - Количество выпавших осадков за 24 часа, мм.
S - Снежный покров - Высота снежного покрова, см. При наведении курсора мыши на число - состояние снежного покрова и степень покрытия местности в баллах.